[[{"header":{"parameterUnit":"m.s-1","parameterCategory":2,"la1":30.2991,"la2":30.254,"lo1":-89.0895,"lo2":-89.0444,"dy":0.0017,"dx":0.0017,"nx":28,"ny":28,"refTime":"2025-12-21T03:00:00:Z","depth":"0","parameterNumber":2,"parameterNumberName":"U-component_of_CURRENTS"},"data":[0,0,0,0,0,0,0,0,0,0,0,0,0,0,0,0,0,0,0,0,0,0,0,0,0,0,0,0,0,0,0,0,0,0,0,0,0,0,0,0,0,0,0,0,0,0,0,0,0,0,0,0,0,0,0,0,0,0,-0.2778,-0.2778,0,-0.2825,-0.2825,-0.2825,-0.2797,-0.2796,-0.2795,-0.2793,-0.2766,-0.2767,-0.2767,0,0,0,0,0,0,0,0,0,0,0,0,0,-0.2665,-0.2667,-0.2778,-0.2779,-0.2779,-0.2825,-0.2825,-0.2826,-0.2797,-0.2796,-0.2794,-0.2793,-0.2766,-0.2767,-0.2767,0,0,0,0,0,0,0,0,0,0,0,0,0,-0.271,-0.2667,-0.2778,-0.2772,-0.2773,-0.2825,-0.2825,-0.2826,-0.2797,-0.2796,-0.2794,-0.2792,-0.2766,-0.2767,-0.2767,-0.2804,0,0,-0.2769,-0.2769,0,0,0,0,0,0,0,0,-0.2708,-0.2714,-0.2772,-0.2773,-0.2773,-0.2805,-0.2776,-0.2816,-0.2798,-0.2785,-0.2793,-0.2791,-0.2775,-0.2775,-0.2785,-0.2803,-0.2802,-0.2769,-0.2769,-0.2769,-0.2769,0,0,0,0,0,0,0,-0.2705,-0.2712,-0.2794,-0.2774,-0.2774,-0.2769,-0.2773,-0.2783,-0.2786,-0.2786,-0.2785,-0.2795,-0.2775,-0.2785,-0.2784,-0.2801,-0.2769,-0.2769,-0.2769,-0.277,-0.284,-0.2842,0,0,0,0,0,0,-0.2707,-0.271,-0.2792,-0.2795,-0.2739,-0.2772,-0.2777,-0.2795,-0.2787,-0.2786,-0.2796,-0.2793,-0.2785,-0.2784,-0.2783,-0.2819,-0.2769,-0.277,-0.277,-0.2839,-0.2841,-0.2842,0,0,0,0,0,0,-0.2704,-0.2714,-0.279,-0.2755,-0.2764,-0.2776,-0.2796,-0.2797,-0.28,-0.2796,-0.2792,-0.2798,-0.2783,-0.2782,-0.2797,-0.2817,-0.277,-0.277,-0.2837,-0.2839,-0.2842,-0.2894,0,0,0,0,0,0,-0.2701,-0.2713,-0.2721,-0.2755,-0.2767,-0.2824,-0.2798,-0.2799,-0.281,-0.2807,-0.2797,-0.2793,-0.2782,-0.2796,-0.2797,-0.2817,-0.2771,-0.2835,-0.2838,-0.2841,-0.2891,-0.2898,-0.2905,0,0,0,0,0,-0.2697,-0.272,-0.2721,-0.2731,-0.278,-0.2825,-0.283,-0.283,-0.2812,-0.2824,-0.2818,-0.2793,-0.2816,-0.2799,-0.2799,-0.2819,-0.2833,-0.2837,-0.2841,-0.2887,-0.2897,-0.2905,0,0,0,0,0,0,-0.2674,-0.2721,-0.2722,-0.2757,-0.2789,-0.2821,-0.2831,-0.2834,-0.2841,-0.2831,-0.2816,-0.2814,-0.2836,-0.2825,-0.2807,-0.285,-0.282,-0.2824,-0.2855,-0.2864,-0.2871,-0.2862,-0.2771,0,0,0,0,0,-0.2676,-0.2699,-0.2745,-0.2769,-0.2787,-0.2808,-0.2823,-0.283,-0.2846,-0.2846,-0.2843,-0.2842,-0.2857,-0.2856,-0.2866,-0.289,-0.2867,-0.2904,-0.2911,-0.2917,-0.2911,-0.2915,-0.2922,-0.2854,-0.2854,-0.2854,0,0,-0.2671,-0.27,-0.2711,-0.2765,-0.2784,-0.2824,-0.2812,-0.2842,-0.287,-0.2843,-0.2868,-0.287,-0.2871,-0.2899,-0.2907,-0.2887,-0.2923,-0.2921,-0.2926,-0.2917,-0.292,-0.2926,-0.2931,-0.2857,-0.2856,-0.2856,0,0,-0.268,-0.2703,-0.2727,-0.2762,-0.2805,-0.2829,-0.2839,-0.2878,-0.2886,-0.2921,-0.291,-0.2923,-0.2942,-0.2948,-0.2953,-0.3007,-0.2965,-0.301,-0.3032,-0.3036,-0.3041,-0.3045,-0.3013,-0.3014,-0.3008,-0.3008,-0.3008,0,-0.2669,-0.2712,-0.274,-0.2781,-0.2811,-0.2833,-0.2873,-0.2899,-0.2935,-0.2948,-0.2932,-0.2973,-0.2967,-0.3005,-0.3018,-0.3022,-0.3003,-0.2997,-0.3044,-0.3048,-0.3051,-0.3017,-0.3017,-0.3011,-0.301,-0.301,-0.301,0,-0.2701,-0.2739,-0.2759,-0.2817,-0.2856,-0.2893,-0.2942,-0.2971,-0.2981,-0.3002,-0.304,-0.3043,-0.3058,-0.3068,-0.3054,-0.3085,-0.3055,-0.3056,-0.3017,-0.306,-0.3022,-0.3021,-0.3015,-0.3014,-0.3013,-0.3012,0,0,-0.2661,-0.2761,-0.2764,-0.2798,-0.2878,-0.291,-0.297,-0.3028,-0.3051,-0.3084,-0.3109,-0.3141,-0.3129,-0.3134,-0.3127,-0.3127,-0.3126,-0.3095,-0.3094,-0.3054,-0.3106,-0.3018,-0.3008,-0.3134,-0.3135,-0.3135,-0.3065,0,-0.2671,-0.2747,-0.28,-0.2866,-0.2909,-0.2965,-0.3019,-0.3072,-0.3102,-0.3132,-0.3148,-0.3167,-0.3161,-0.3156,-0.3163,-0.3138,-0.3128,-0.3143,-0.3078,-0.3075,-0.2985,-0.3007,-0.2885,-0.2807,-0.3063,-0.3063,-0.3063,0,-0.2678,-0.273,-0.2799,-0.2893,-0.2916,-0.296,-0.3035,-0.3084,-0.3144,-0.3166,-0.3197,-0.3201,-0.3214,-0.3193,-0.3179,-0.3186,-0.3146,-0.3123,-0.312,-0.3017,-0.2987,-0.2809,-0.2795,-0.2767,-0.3061,-0.3062,-0.3062,0,-0.262,-0.2724,-0.2773,-0.2807,-0.292,-0.2954,-0.3006,-0.3083,-0.3123,-0.3171,-0.3192,-0.3221,-0.3217,-0.3201,-0.3154,-0.3164,-0.3115,-0.3125,-0.301,-0.3002,-0.2873,-0.2853,-0.2814,-0.3107,-0.3107,-0.3107,-0.3107,0,-0.2606,-0.2639,-0.2746,-0.277,-0.2823,-0.2914,-0.2965,-0.3022,-0.3099,-0.3128,-0.3187,-0.3202,-0.3218,-0.3198,-0.3156,-0.3068,-0.3118,-0.3005,-0.2983,-0.2887,-0.287,-0.2818,-0.2841,-0.3104,-0.3105,-0.3105,-0.3106,0,-0.2526,-0.2603,-0.2657,-0.2765,-0.2795,-0.2823,-0.2934,-0.2965,-0.3054,-0.3091,-0.3104,-0.318,-0.3152,-0.3145,-0.31,-0.3053,-0.2926,-0.2941,-0.2807,-0.277,-0.2635,-0.2665,-0.259,-0.2519,-0.2803,-0.28,-0.2798,0,-0.2492,-0.2512,-0.2616,-0.2637,-0.2679,-0.2744,-0.2784,-0.291,-0.2947,-0.3061,-0.306,-0.3084,-0.3055,-0.2973,-0.29,-0.2805,-0.2813,-0.2643,-0.2647,-0.26,-0.2619,-0.2645,-0.2593,-0.2492,-0.2487,-0.2483,-0.2481,0,-0.2404,-0.2439,-0.2477,-0.2526,-0.2567,-0.2622,-0.2691,-0.2727,-0.2856,-0.2899,-0.293,-0.2921,-0.2873,-0.2737,-0.2641,-0.2574,-0.2573,-0.2564,-0.2559,-0.2403,-0.2384,-0.2313,-0.2553,-0.2448,-0.2451,-0.2454,-0.2455,-0.2457,-0.2311,-0.2314,-0.236,-0.239,-0.2435,-0.2462,-0.2458,-0.2544,-0.2583,-0.2613,-0.2713,-0.2666,-0.2609,-0.2459,-0.239,-0.2245,-0.2328,-0.2184,-0.223,-0.2265,-0.2181,-0.2331,-0.2182,-0.2183,-0.2185,-0.2186,-0.2187,0,-0.2185,-0.22,-0.2221,-0.225,-0.223,-0.2308,-0.2355,-0.2321,-0.2303,-0.2375,-0.2372,-0.2346,-0.2203,-0.2171,-0.2041,-0.1945,-0.191,-0.1908,-0.1928,-0.1895,-0.2047,-0.2017,-0.1771,-0.1771,-0.1771,-0.1771,-0.1771,-0.1771,-0.2118,-0.2086,-0.2099,-0.2025,-0.2036,-0.1963,-0.1952,-0.1927,-0.1945,-0.1909,-0.1934,-0.2,-0.1988,-0.2062,-0.1907,-0.1811,-0.1779,-0.1717,-0.1762,-0.1893,-0.1923,-0.1952,-0.1929,-0.1668,-0.1668,-0.153,-0.1529,-0.1529]},{"header":{"parameterUnit":"m.s-1","parameterCategory":2,"la1":30.2991,"la2":30.254,"lo1":-89.0895,"lo2":-89.0444,"dy":0.0017,"dx":0.0017,"nx":28,"ny":28,"refTime":"2025-12-21T03:00:00:Z","depth":"0","parameterNumber":3,"parameterNumberName":"V-component_of_CURRENTS"},"data":[0,0,0,0,0,0,0,0,0,0,0,0,0,0,0,0,0,0,0,0,0,0,0,0,0,0,0,0,0,0,0,0,0,0,0,0,0,0,0,0,0,0,0,0,0,0,0,0,0,0,0,0,0,0,0,0,0,0,-0.0213,-0.0212,0,-0.0116,-0.0115,-0.0113,-0.0043,-0.0043,-0.0043,-0.0042,0.0096,0.0099,0.0102,0,0,0,0,0,0,0,0,0,0,0,0,0,-0.0268,-0.0268,-0.0213,-0.0212,-0.0211,-0.0116,-0.0115,-0.0113,-0.0043,-0.0043,-0.0043,-0.0042,0.0095,0.0099,0.0103,0,0,0,0,0,0,0,0,0,0,0,0,0,-0.0213,-0.0268,-0.0213,-0.0166,-0.0161,-0.0117,-0.0115,-0.0113,-0.0044,-0.0043,-0.0042,-0.0042,0.0094,0.0098,0.0103,0.0122,0,0,0.0118,0.0121,0,0,0,0,0,0,0,0,-0.0217,-0.0211,-0.0174,-0.017,-0.0164,-0.0093,-0.0083,-0.0033,-0.0044,-0.0086,-0.0042,-0.0042,0.0035,0.0045,0.0064,0.0129,0.0135,0.0119,0.0122,0.0124,0.0125,0,0,0,0,0,0,0,-0.0221,-0.0215,-0.0173,-0.0173,-0.0167,-0.0126,-0.0118,-0.0073,-0.0028,-0.0082,-0.0078,-0.007,0.0038,0.0059,0.0068,0.0137,0.0119,0.0123,0.0126,0.0128,0.0247,0.0247,0,0,0,0,0,0,-0.0241,-0.0219,-0.0176,-0.017,-0.0192,-0.0126,-0.0117,-0.0115,-0.0029,-0.0016,-0.0071,-0.0067,0.005,0.0062,0.0073,0.0105,0.0124,0.0129,0.0132,0.0247,0.0247,0.0247,0,0,0,0,0,0,-0.0243,-0.0239,-0.018,-0.0193,-0.0183,-0.0127,-0.0124,-0.0113,-0.0093,-0.0021,-0.0007,-0.0062,0.0051,0.0066,0.0112,0.011,0.0131,0.0135,0.0247,0.0247,0.0247,0.0165,0,0,0,0,0,0,-0.0245,-0.024,-0.0246,-0.0195,-0.0183,-0.0163,-0.0124,-0.0112,-0.009,-0.0085,-0.0009,0.0005,0.0053,0.0104,0.0117,0.0117,0.0139,0.0246,0.0247,0.0247,0.0168,0.0163,0.0158,0,0,0,0,0,-0.0247,-0.0263,-0.0247,-0.0242,-0.0193,-0.0164,-0.0154,-0.011,-0.0091,-0.0088,-0.0033,0.0002,0.0116,0.0108,0.0123,0.0125,0.0246,0.0247,0.0247,0.017,0.0164,0.0158,0,0,0,0,0,0,-0.0289,-0.0256,-0.0237,-0.0241,-0.021,-0.0153,-0.0148,-0.0118,-0.0073,-0.0066,0.0003,0.0021,0.006,0.0104,0.0094,0.0162,0.0187,0.0191,0.0124,0.0118,0.0114,0.0096,0.0143,0,0,0,0,0,-0.0303,-0.0305,-0.0263,-0.0266,-0.0255,-0.0203,-0.0186,-0.0157,-0.0111,-0.009,-0.0037,0.0022,0.0074,0.0103,0.0153,0.0188,0.0238,0.02,0.0196,0.0191,0.0188,0.0262,0.0264,0.0248,0.0248,0.0248,0,0,-0.0319,-0.0302,-0.0301,-0.0275,-0.0246,-0.024,-0.0191,-0.0173,-0.016,-0.0082,-0.0051,0.0004,0.0079,0.0119,0.0141,0.0155,0.0222,0.0192,0.0187,0.0186,0.0263,0.0265,0.0266,0.0249,0.0249,0.0249,0,0,-0.0359,-0.0338,-0.0356,-0.0336,-0.0305,-0.0271,-0.0271,-0.0221,-0.019,-0.0155,-0.0093,-0.004,0.0033,0.009,0.0129,0.0129,0.0191,0.0143,0.0109,0.0181,0.0182,0.0184,0.0244,0.0252,0.0144,0.0143,0.0143,0,-0.038,-0.0395,-0.0355,-0.0366,-0.0356,-0.0292,-0.0305,-0.0264,-0.0204,-0.0176,-0.0157,-0.0035,0.0022,0.0089,0.0087,0.0118,0.0163,0.012,0.0173,0.0177,0.018,0.0241,0.0251,0.014,0.014,0.014,0.0141,0,-0.0431,-0.0442,-0.045,-0.0442,-0.0424,-0.0425,-0.0369,-0.0341,-0.0297,-0.0248,-0.018,-0.0095,-0.002,0.0006,0.0045,0.0101,0.0125,0.0153,0.0182,0.0176,0.0241,0.0253,0.0134,0.0135,0.0137,0.0138,0,0,-0.0482,-0.0488,-0.0491,-0.0503,-0.0466,-0.0458,-0.0432,-0.0386,-0.0362,-0.029,-0.0248,-0.0155,-0.0101,-0.0054,0.0013,0.0073,0.0133,0.0113,0.0119,0.0161,0.0284,0.0323,0.0341,0.0168,0.017,0.0171,0.0316,0,-0.0535,-0.0585,-0.0561,-0.0592,-0.0611,-0.0546,-0.0527,-0.0472,-0.0405,-0.0347,-0.0239,-0.0177,-0.0123,-0.0087,-0.0017,0.0096,0.0162,0.0091,0.0293,0.0298,0.0326,0.0355,0.0388,0.0522,0.0328,0.033,0.0331,0,-0.0592,-0.0618,-0.0669,-0.0673,-0.0673,-0.0673,-0.0623,-0.0597,-0.0489,-0.0436,-0.0342,-0.0253,-0.0146,-0.0104,0.009,0.0041,0.0151,0.0239,0.0248,0.0322,0.0361,0.05,0.0552,0.0705,0.035,0.0349,0.0348,0,-0.0657,-0.069,-0.0736,-0.0739,-0.073,-0.0728,-0.071,-0.0626,-0.0598,-0.0485,-0.0444,-0.0299,-0.0218,-0.0069,0.0119,0.0105,0.0335,0.0345,0.0489,0.0493,0.0581,0.0589,0.0798,0.0485,0.0484,0.0484,0.0484,0,-0.0724,-0.0758,-0.0773,-0.08,-0.0842,-0.08,-0.0806,-0.0758,-0.0679,-0.064,-0.0498,-0.0423,-0.0206,-0.0042,0.0112,0.0344,0.034,0.0492,0.054,0.0553,0.0557,0.0742,0.0792,0.0489,0.0488,0.0487,0.0486,0,-0.0789,-0.0799,-0.0858,-0.0873,-0.0879,-0.0907,-0.089,-0.0881,-0.0796,-0.0737,-0.0705,-0.0504,-0.0283,-0.0055,0.0209,0.0344,0.0655,0.0634,0.0628,0.0672,0.0922,0.0965,0.1215,0.1307,0.0805,0.0807,0.0809,0,-0.0828,-0.0867,-0.0925,-0.0964,-0.0977,-0.1004,-0.1015,-0.0951,-0.093,-0.078,-0.0752,-0.0523,-0.0334,0.0071,0.0353,0.0651,0.077,0.0843,0.0825,0.0954,0.1039,0.1067,0.1127,0.0912,0.0914,0.0916,0.0917,0,-0.0899,-0.092,-0.0969,-0.1057,-0.1095,-0.1129,-0.1134,-0.1136,-0.1039,-0.0954,-0.0792,-0.0626,-0.0212,0.0158,0.0545,0.0722,0.0953,0.089,0.1046,0.1158,0.1185,0.1288,0.0784,0.0934,0.0933,0.0931,0.093,0.093,-0.0942,-0.1,-0.1067,-0.1144,-0.1193,-0.1233,-0.125,-0.1218,-0.1164,-0.1005,-0.0835,-0.0543,-0.0013,0.055,0.0749,0.1163,0.1121,0.1283,0.133,0.1351,0.1428,0.0948,0.1133,0.1133,0.1132,0.1132,0.1132,0,-0.0992,-0.1057,-0.1145,-0.1231,-0.1292,-0.1293,-0.1308,-0.128,-0.1206,-0.1003,-0.0796,-0.0201,0.0313,0.0782,0.1366,0.1588,0.1635,0.1699,0.1759,0.1804,0.1413,0.1406,0.1634,0.1633,0.1633,0.1633,0.1633,0.1633,-0.1021,-0.1116,-0.1166,-0.1286,-0.1341,-0.138,-0.1381,-0.1308,-0.1165,-0.082,-0.0475,-0.0182,0.0489,0.1418,0.1945,0.1997,0.2177,0.2166,0.2262,0.1993,0.1958,0.1924,0.1932,0.2266,0.2267,0.2643,0.2646,0.2649]}],[{"header":{"parameterUnit":"m.s-1","parameterCategory":2,"la1":30.2991,"la2":30.254,"lo1":-89.0895,"lo2":-89.0444,"dy":0.0017,"dx":0.0017,"nx":28,"ny":28,"refTime":"2025-12-21T03:00:00:Z","depth":"2","parameterNumber":2,"parameterNumberName":"U-component_of_CURRENTS"},"data":[0,0,0,0,0,0,0,0,0,0,0,0,0,0,0,0,0,0,0,0,0,0,0,0,0,0,0,0,0,0,0,0,0,0,0,0,0,0,0,0,0,0,0,0,0,0,0,0,0,0,0,0,0,0,0,0,0,0,-0.2366,-0.2367,0,-0.2406,-0.2406,-0.2406,-0.2385,-0.2384,-0.2383,-0.2382,-0.2364,-0.2365,-0.2365,0,0,0,0,0,0,0,0,0,0,0,0,0,-0.2277,-0.2278,-0.2366,-0.2367,-0.2367,-0.2406,-0.2406,-0.2406,-0.2385,-0.2384,-0.2383,-0.2382,-0.2364,-0.2365,-0.2365,0,0,0,0,0,0,0,0,0,0,0,0,0,-0.2314,-0.2279,-0.2366,-0.2363,-0.2363,-0.2406,-0.2406,-0.2407,-0.2385,-0.2384,-0.2383,-0.2382,-0.2364,-0.2365,-0.2365,-0.2394,0,0,-0.2367,-0.2367,0,0,0,0,0,0,0,0,-0.2312,-0.2317,-0.2363,-0.2363,-0.2364,-0.2391,-0.2368,-0.24,-0.2386,-0.2375,-0.2382,-0.2381,-0.237,-0.237,-0.2378,-0.2393,-0.2393,-0.2367,-0.2367,-0.2367,-0.2367,0,0,0,0,0,0,0,-0.2309,-0.2315,-0.2379,-0.2364,-0.2364,-0.2362,-0.2365,-0.2374,-0.2377,-0.2376,-0.2375,-0.2383,-0.237,-0.2378,-0.2378,-0.2392,-0.2367,-0.2367,-0.2367,-0.2368,-0.2436,-0.2437,0,0,0,0,0,0,-0.231,-0.2313,-0.2378,-0.2381,-0.2337,-0.2365,-0.2368,-0.2382,-0.2378,-0.2377,-0.2384,-0.2382,-0.2378,-0.2377,-0.2377,-0.2416,-0.2367,-0.2368,-0.2368,-0.2434,-0.2436,-0.2438,0,0,0,0,0,0,-0.2308,-0.2316,-0.2377,-0.2349,-0.2357,-0.2368,-0.2383,-0.2383,-0.239,-0.2385,-0.2383,-0.239,-0.2377,-0.2376,-0.2393,-0.2415,-0.2368,-0.2368,-0.2432,-0.2435,-0.2437,-0.2492,0,0,0,0,0,0,-0.2306,-0.2315,-0.2322,-0.2349,-0.2359,-0.2407,-0.2384,-0.2385,-0.2398,-0.2395,-0.2389,-0.2386,-0.2376,-0.2392,-0.2393,-0.2415,-0.2369,-0.243,-0.2433,-0.2436,-0.2488,-0.2496,-0.2502,0,0,0,0,0,-0.2303,-0.2321,-0.2323,-0.233,-0.2369,-0.2408,-0.2412,-0.2413,-0.24,-0.2412,-0.2409,-0.2386,-0.241,-0.2394,-0.2395,-0.2417,-0.2429,-0.2433,-0.2436,-0.2485,-0.2494,-0.2502,0,0,0,0,0,0,-0.2285,-0.2322,-0.2324,-0.2352,-0.2379,-0.2405,-0.2415,-0.2419,-0.2428,-0.2421,-0.2408,-0.2406,-0.2431,-0.242,-0.2402,-0.2446,-0.2416,-0.242,-0.2453,-0.2462,-0.2469,-0.2459,-0.2369,0,0,0,0,0,-0.2287,-0.2307,-0.2344,-0.2364,-0.2379,-0.2398,-0.2411,-0.2419,-0.2433,-0.2435,-0.2434,-0.2435,-0.2449,-0.245,-0.246,-0.2484,-0.2462,-0.2499,-0.2506,-0.2512,-0.2506,-0.251,-0.2517,-0.2449,-0.2449,-0.2449,0,0,-0.2284,-0.2307,-0.2317,-0.2361,-0.2378,-0.2413,-0.2402,-0.243,-0.2456,-0.2432,-0.2459,-0.2462,-0.2462,-0.2491,-0.25,-0.2481,-0.252,-0.2516,-0.2521,-0.2512,-0.2514,-0.2521,-0.2526,-0.2451,-0.2451,-0.245,0,0,-0.2293,-0.2312,-0.2333,-0.2363,-0.2401,-0.2421,-0.2432,-0.2467,-0.2476,-0.2511,-0.2501,-0.2517,-0.2536,-0.2542,-0.2546,-0.2599,-0.2561,-0.2603,-0.2626,-0.2631,-0.2636,-0.264,-0.2616,-0.2618,-0.2601,-0.2602,-0.2602,0,-0.2286,-0.2321,-0.2345,-0.2379,-0.2406,-0.2427,-0.2463,-0.2487,-0.2521,-0.2536,-0.2524,-0.2564,-0.2561,-0.2596,-0.261,-0.2614,-0.2598,-0.2592,-0.2638,-0.2642,-0.2645,-0.262,-0.2621,-0.2605,-0.2604,-0.2604,-0.2604,0,-0.2313,-0.2345,-0.2363,-0.2412,-0.2447,-0.2481,-0.2525,-0.2555,-0.2568,-0.2589,-0.2628,-0.2633,-0.2649,-0.2659,-0.2647,-0.2678,-0.2652,-0.265,-0.2613,-0.2655,-0.2626,-0.2626,-0.2609,-0.2608,-0.2607,-0.2606,0,0,-0.228,-0.2365,-0.2368,-0.2397,-0.2468,-0.2496,-0.2553,-0.2606,-0.2631,-0.2665,-0.2693,-0.2725,-0.2719,-0.2723,-0.2718,-0.2719,-0.2726,-0.2691,-0.269,-0.2659,-0.2714,-0.263,-0.2621,-0.273,-0.2731,-0.2731,-0.2681,0,-0.2288,-0.2351,-0.2398,-0.2457,-0.2493,-0.2545,-0.2595,-0.2645,-0.2678,-0.2711,-0.2729,-0.2753,-0.2747,-0.2748,-0.2756,-0.2735,-0.273,-0.2738,-0.2683,-0.2681,-0.2595,-0.262,-0.2421,-0.2353,-0.2681,-0.2681,-0.268,0,-0.2292,-0.2336,-0.2395,-0.2478,-0.2498,-0.2539,-0.2611,-0.2658,-0.272,-0.2743,-0.2778,-0.2787,-0.2805,-0.2786,-0.2778,-0.2782,-0.2749,-0.2729,-0.2727,-0.2626,-0.2597,-0.2366,-0.2341,-0.268,-0.268,-0.268,-0.268,0,-0.224,-0.233,-0.2372,-0.2402,-0.2502,-0.2535,-0.2585,-0.266,-0.2698,-0.2753,-0.2776,-0.2809,-0.2811,-0.28,-0.2764,-0.277,-0.2735,-0.2739,-0.2633,-0.2626,-0.2433,-0.2407,-0.2725,-0.2725,-0.2726,-0.2726,-0.2726,0,-0.2225,-0.2254,-0.2349,-0.237,-0.2417,-0.2501,-0.2551,-0.2607,-0.2682,-0.2709,-0.2776,-0.279,-0.2814,-0.2802,-0.2769,-0.2692,-0.274,-0.2631,-0.2611,-0.2446,-0.2424,-0.269,-0.2687,-0.2724,-0.2724,-0.2725,-0.2725,0,-0.2152,-0.222,-0.2266,-0.2363,-0.2392,-0.2419,-0.2522,-0.2551,-0.264,-0.2677,-0.2693,-0.277,-0.2752,-0.2757,-0.2723,-0.2681,-0.2625,-0.2584,-0.2375,-0.2332,-0.2511,-0.2511,-0.2464,-0.2461,-0.2458,-0.2456,-0.2454,0,-0.2119,-0.2136,-0.2229,-0.2247,-0.2286,-0.2347,-0.2383,-0.2501,-0.2534,-0.2645,-0.2643,-0.2677,-0.2648,-0.2589,-0.2523,-0.2444,-0.2535,-0.2225,-0.2207,-0.25,-0.2486,-0.2491,-0.2495,-0.1967,-0.1961,-0.1956,-0.1953,0,-0.2039,-0.2071,-0.2104,-0.2144,-0.2181,-0.2227,-0.229,-0.2315,-0.2435,-0.2475,-0.2498,-0.2491,-0.2458,-0.2295,-0.2225,-0.2157,-0.2227,-0.2126,-0.2478,-0.2074,-0.203,-0.2017,-0.2037,-0.191,-0.1915,-0.1918,-0.192,-0.1922,-0.1958,-0.1957,-0.1995,-0.2017,-0.2056,-0.2069,-0.2056,-0.2126,-0.2153,-0.2165,-0.2266,-0.2189,-0.2184,-0.1968,-0.1872,-0.1806,-0.1959,-0.1871,-0.1886,-0.1906,-0.1868,-0.1823,-0.1655,-0.1657,-0.166,-0.1662,-0.1663,0,-0.1843,-0.1851,-0.1864,-0.1882,-0.1856,-0.1929,-0.1954,-0.1906,-0.1867,-0.1912,-0.1899,-0.1707,-0.1606,-0.1614,-0.1443,-0.1415,-0.1406,-0.136,-0.1347,-0.1389,-0.1426,-0.1365,-0.1018,-0.1016,-0.1014,-0.1013,0,0,-0.1782,-0.1744,-0.1747,-0.1664,-0.167,-0.159,-0.1566,-0.1516,-0.1506,-0.142,-0.1385,-0.1501,-0.1548,-0.1283,-0.1224,-0.1093,-0.1229,-0.1035,-0.1549,-0.1574,-0.1609,-0.1711,-0.1662,0,0,0,0,0]},{"header":{"parameterUnit":"m.s-1","parameterCategory":2,"la1":30.2991,"la2":30.254,"lo1":-89.0895,"lo2":-89.0444,"dy":0.0017,"dx":0.0017,"nx":28,"ny":28,"refTime":"2025-12-21T03:00:00:Z","depth":"2","parameterNumber":3,"parameterNumberName":"V-component_of_CURRENTS"},"data":[0,0,0,0,0,0,0,0,0,0,0,0,0,0,0,0,0,0,0,0,0,0,0,0,0,0,0,0,0,0,0,0,0,0,0,0,0,0,0,0,0,0,0,0,0,0,0,0,0,0,0,0,0,0,0,0,0,0,-0.0199,-0.0199,0,-0.0115,-0.0114,-0.0113,-0.0051,-0.0051,-0.0051,-0.005,0.0073,0.0076,0.0078,0,0,0,0,0,0,0,0,0,0,0,0,0,-0.0241,-0.0241,-0.02,-0.0199,-0.0198,-0.0115,-0.0114,-0.0113,-0.0051,-0.0051,-0.005,-0.005,0.0072,0.0075,0.0079,0,0,0,0,0,0,0,0,0,0,0,0,0,-0.0195,-0.0241,-0.02,-0.0159,-0.0154,-0.0116,-0.0114,-0.0112,-0.0051,-0.0051,-0.005,-0.005,0.0071,0.0075,0.0079,0.0096,0,0,0.0093,0.0095,0,0,0,0,0,0,0,0,-0.0198,-0.0193,-0.0166,-0.0162,-0.0157,-0.0095,-0.0084,-0.0041,-0.0052,-0.0088,-0.005,-0.005,0.0018,0.0027,0.0044,0.0102,0.0107,0.0093,0.0096,0.0098,0.0099,0,0,0,0,0,0,0,-0.0201,-0.0196,-0.0164,-0.0165,-0.0159,-0.0122,-0.0115,-0.0075,-0.0037,-0.0085,-0.0081,-0.0075,0.0022,0.004,0.0048,0.0109,0.0093,0.0097,0.01,0.0101,0.0206,0.0206,0,0,0,0,0,0,-0.022,-0.02,-0.0167,-0.0162,-0.0178,-0.0122,-0.0114,-0.0114,-0.0038,-0.0027,-0.0075,-0.0072,0.0032,0.0042,0.0052,0.0079,0.0098,0.0102,0.0104,0.0206,0.0206,0.0206,0,0,0,0,0,0,-0.0221,-0.0218,-0.017,-0.018,-0.0171,-0.0123,-0.0122,-0.0112,-0.0094,-0.0031,-0.0019,-0.0068,0.0033,0.0046,0.0086,0.0084,0.0104,0.0108,0.0206,0.0206,0.0206,0.0131,0,0,0,0,0,0,-0.0222,-0.0219,-0.0225,-0.0182,-0.0172,-0.0157,-0.0122,-0.0111,-0.0092,-0.0088,-0.0021,-0.0008,0.0034,0.0079,0.0091,0.0091,0.0111,0.0206,0.0206,0.0206,0.0134,0.0129,0.0125,0,0,0,0,0,-0.0224,-0.0239,-0.0226,-0.0222,-0.0182,-0.0157,-0.0149,-0.011,-0.0093,-0.0091,-0.0043,-0.0011,0.0089,0.0083,0.0096,0.0097,0.0205,0.0206,0.0206,0.0136,0.013,0.0125,0,0,0,0,0,0,-0.026,-0.0233,-0.0218,-0.0224,-0.0197,-0.0148,-0.0144,-0.0117,-0.0077,-0.0072,-0.001,0.0005,0.004,0.0079,0.0071,0.0129,0.0153,0.0156,0.0095,0.009,0.0086,0.007,0.0115,0,0,0,0,0,-0.0273,-0.0276,-0.0241,-0.0245,-0.0236,-0.0191,-0.0176,-0.0151,-0.0111,-0.0093,-0.0046,0.0006,0.0051,0.0078,0.0121,0.0152,0.0196,0.0163,0.0158,0.0154,0.0151,0.0215,0.0216,0.0207,0.0207,0.0207,0,0,-0.0287,-0.0273,-0.0274,-0.0253,-0.0228,-0.0224,-0.0181,-0.0166,-0.0155,-0.0086,-0.0059,-0.001,0.0055,0.009,0.0109,0.0123,0.018,0.0155,0.015,0.015,0.0215,0.0216,0.0217,0.0207,0.0207,0.0207,0,0,-0.0322,-0.0307,-0.0323,-0.0307,-0.0281,-0.0251,-0.0252,-0.0209,-0.0182,-0.0152,-0.0098,-0.0051,0.0013,0.0063,0.0097,0.0096,0.0151,0.0108,0.0077,0.0139,0.014,0.0141,0.0193,0.02,0.0109,0.0109,0.0109,0,-0.0342,-0.0357,-0.0323,-0.0333,-0.0326,-0.0271,-0.0283,-0.0248,-0.0196,-0.0173,-0.0155,-0.0048,0.0003,0.0059,0.0057,0.0085,0.0125,0.0088,0.0132,0.0134,0.0137,0.019,0.0198,0.0106,0.0106,0.0106,0.0107,0,-0.0387,-0.0398,-0.0407,-0.0402,-0.0387,-0.039,-0.0342,-0.0319,-0.0282,-0.0239,-0.0181,-0.0105,-0.0041,-0.0017,0.002,0.0066,0.0089,0.0114,0.014,0.0133,0.019,0.02,0.0101,0.0102,0.0103,0.0104,0,0,-0.0432,-0.044,-0.0443,-0.0457,-0.0426,-0.0421,-0.04,-0.0364,-0.0346,-0.0282,-0.0248,-0.0165,-0.0117,-0.0076,-0.0016,0.0039,0.009,0.0076,0.0081,0.0117,0.0219,0.024,0.0254,0.012,0.0122,0.0123,0.0248,0,-0.0479,-0.0525,-0.0507,-0.0539,-0.0557,-0.0503,-0.049,-0.0444,-0.0388,-0.034,-0.0244,-0.019,-0.014,-0.0108,-0.0046,0.0057,0.0114,0.0053,0.0229,0.0235,0.0246,0.0265,0.0225,0.0335,0.0259,0.026,0.0262,0,-0.053,-0.0555,-0.0603,-0.0614,-0.0615,-0.0618,-0.0582,-0.0562,-0.0472,-0.0426,-0.0346,-0.0266,-0.017,-0.0129,0.0043,0.0,0.0098,0.018,0.0187,0.024,0.0274,0.0332,0.0356,0.0279,0.0278,0.0277,0.0275,0,-0.0587,-0.0621,-0.0665,-0.0669,-0.0668,-0.067,-0.0658,-0.0589,-0.0571,-0.0474,-0.0441,-0.0313,-0.0242,-0.0107,0.0062,0.0054,0.0253,0.0268,0.0383,0.0385,0.0404,0.0405,0.0389,0.0389,0.0389,0.0389,0.0388,0,-0.0647,-0.0681,-0.0699,-0.0724,-0.0767,-0.0735,-0.0749,-0.071,-0.0646,-0.0622,-0.0493,-0.0433,-0.0234,-0.0091,0.0052,0.025,0.0252,0.0383,0.0423,0.0376,0.0374,0.0367,0.0363,0.0393,0.0392,0.0391,0.039,0,-0.0703,-0.0715,-0.0772,-0.0792,-0.08,-0.083,-0.0827,-0.0825,-0.0755,-0.0714,-0.0686,-0.0514,-0.0322,-0.0117,0.012,0.024,0.0424,0.0494,0.042,0.0449,0.0515,0.0506,0.0631,0.0633,0.0634,0.0636,0.0637,0,-0.0737,-0.0773,-0.0833,-0.0872,-0.0886,-0.0918,-0.0935,-0.0888,-0.0877,-0.076,-0.0741,-0.0546,-0.0391,-0.0035,0.021,0.0475,0.0483,0.0584,0.0564,0.0516,0.0542,0.053,0.0519,0.0561,0.0562,0.0562,0.0562,0,-0.0799,-0.0821,-0.0868,-0.0953,-0.0994,-0.1034,-0.1048,-0.1057,-0.0985,-0.0921,-0.0796,-0.0659,-0.0313,-0.0021,0.0317,0.0465,0.0535,0.0599,0.059,0.0497,0.0458,0.0481,0.0471,0.0565,0.0565,0.0565,0.0564,0.0564,-0.0838,-0.0891,-0.0956,-0.103,-0.1083,-0.1128,-0.115,-0.1132,-0.11,-0.0978,-0.0848,-0.0613,-0.0333,0.0152,0.0386,0.0602,0.0602,0.0656,0.0652,0.0648,0.0608,0.0574,0.0695,0.0695,0.0696,0.0696,0.0696,0,-0.0883,-0.0942,-0.1025,-0.1109,-0.1171,-0.1179,-0.1204,-0.1183,-0.1132,-0.0983,-0.0824,-0.0501,-0.017,0.0125,0.0465,0.0666,0.0649,0.0697,0.0631,0.0627,0.0624,0.058,0.0661,0.0661,0.0662,0.0662,0,0,-0.0909,-0.0995,-0.104,-0.1155,-0.1211,-0.1256,-0.1264,-0.1203,-0.1093,-0.0928,-0.0749,-0.0507,-0.0154,0.0077,0.033,0.0507,0.0515,0.0523,0.053,0.0418,0.0413,0.0579,0.0505,0,0,0,0,0]}],[{"header":{"parameterUnit":"m.s-1","parameterCategory":2,"la1":30.2991,"la2":30.254,"lo1":-89.0895,"lo2":-89.0444,"dy":0.0017,"dx":0.0017,"nx":28,"ny":28,"refTime":"2025-12-21T03:00:00:Z","depth":"4","parameterNumber":2,"parameterNumberName":"U-component_of_CURRENTS"},"data":[0,0,0,0,0,0,0,0,0,0,0,0,0,0,0,0,0,0,0,0,0,0,0,0,0,0,0,0,0,0,0,0,0,0,0,0,0,0,0,0,0,0,0,0,0,0,0,0,0,0,0,0,0,0,0,0,0,0,-0.1646,-0.1647,0,-0.171,-0.171,-0.1711,-0.1744,-0.1744,-0.1744,-0.1744,-0.1793,-0.1794,-0.1795,0,0,0,0,0,0,0,0,0,0,0,0,0,-0.1555,-0.1557,-0.1646,-0.1647,-0.1648,-0.1709,-0.171,-0.1711,-0.1744,-0.1744,-0.1744,-0.1744,-0.1793,-0.1794,-0.1795,0,0,0,0,0,0,0,0,0,0,0,0,0,-0.1603,-0.1557,-0.1646,-0.1673,-0.1676,-0.1709,-0.171,-0.1711,-0.1744,-0.1744,-0.1744,-0.1744,-0.1792,-0.1794,-0.1796,-0.18,0,0,-0.1801,-0.1802,0,0,0,0,0,0,0,0,-0.16,-0.1606,-0.1668,-0.1671,-0.1674,-0.172,-0.1696,-0.1741,-0.1743,-0.1716,-0.1744,-0.1745,-0.1768,-0.1772,-0.1781,-0.1803,-0.1805,-0.1801,-0.1802,-0.1803,-0.1803,0,0,0,0,0,0,0,-0.1597,-0.1603,-0.1669,-0.1669,-0.1673,-0.1683,-0.169,-0.1705,-0.1738,-0.1718,-0.1721,-0.1731,-0.177,-0.1779,-0.1783,-0.1805,-0.1801,-0.1802,-0.1803,-0.1804,-0.1907,-0.1909,0,0,0,0,0,0,-0.1592,-0.16,-0.1667,-0.1671,-0.1639,-0.1684,-0.1692,-0.1704,-0.1738,-0.1745,-0.1731,-0.1732,-0.1776,-0.1781,-0.1784,-0.1862,-0.1803,-0.1804,-0.1805,-0.1906,-0.1908,-0.191,0,0,0,0,0,0,-0.159,-0.1597,-0.1665,-0.1638,-0.1648,-0.1686,-0.1699,-0.1705,-0.1742,-0.1748,-0.1754,-0.1764,-0.1777,-0.1782,-0.1827,-0.1862,-0.1805,-0.1807,-0.1904,-0.1906,-0.1909,-0.1973,0,0,0,0,0,0,-0.1587,-0.1596,-0.1616,-0.1638,-0.1649,-0.1704,-0.1699,-0.1706,-0.1746,-0.175,-0.1778,-0.1781,-0.1777,-0.1825,-0.1829,-0.1863,-0.1808,-0.1901,-0.1905,-0.1908,-0.1968,-0.1977,-0.1985,0,0,0,0,0,-0.1583,-0.1606,-0.1617,-0.1626,-0.1671,-0.1705,-0.1713,-0.1738,-0.1748,-0.1771,-0.1794,-0.1782,-0.1848,-0.1828,-0.1832,-0.1867,-0.19,-0.1904,-0.1908,-0.1965,-0.1975,-0.1984,0,0,0,0,0,0,-0.1578,-0.1612,-0.1624,-0.1657,-0.1689,-0.1712,-0.1739,-0.1756,-0.1792,-0.1803,-0.1805,-0.1811,-0.1863,-0.1858,-0.1836,-0.1907,-0.1872,-0.1877,-0.1914,-0.1924,-0.1932,-0.192,-0.1809,0,0,0,0,0,-0.1586,-0.1613,-0.1644,-0.1673,-0.1691,-0.1721,-0.1743,-0.1763,-0.1792,-0.181,-0.1832,-0.1855,-0.1879,-0.1896,-0.1915,-0.1955,-0.1934,-0.198,-0.1989,-0.1995,-0.199,-0.1996,-0.2004,-0.1923,-0.1922,-0.1922,0,0,-0.1593,-0.1615,-0.1632,-0.1675,-0.1701,-0.1735,-0.1736,-0.178,-0.1816,-0.1808,-0.1872,-0.1888,-0.1897,-0.1943,-0.1966,-0.1946,-0.2009,-0.2,-0.2006,-0.1996,-0.2001,-0.2008,-0.2015,-0.1925,-0.1925,-0.1924,0,0,-0.161,-0.1641,-0.1667,-0.1698,-0.1745,-0.1765,-0.1785,-0.1829,-0.1859,-0.1915,-0.192,-0.1957,-0.1999,-0.201,-0.2019,-0.2083,-0.2054,-0.2097,-0.2127,-0.2135,-0.2141,-0.2146,-0.2132,-0.2135,-0.2099,-0.2099,-0.2099,0,-0.1619,-0.1653,-0.1681,-0.1715,-0.1746,-0.1782,-0.182,-0.1855,-0.1912,-0.1939,-0.1946,-0.2017,-0.2028,-0.2071,-0.2094,-0.2101,-0.2091,-0.2089,-0.2144,-0.2148,-0.2153,-0.2136,-0.2139,-0.2103,-0.2102,-0.2102,-0.2101,0,-0.1645,-0.1687,-0.1707,-0.176,-0.1799,-0.184,-0.1889,-0.1937,-0.1978,-0.2007,-0.2075,-0.2095,-0.213,-0.2147,-0.2141,-0.2183,-0.2162,-0.2154,-0.2115,-0.2164,-0.2145,-0.2146,-0.2108,-0.2106,-0.2105,-0.2104,0,0,-0.1622,-0.1709,-0.1718,-0.1752,-0.1829,-0.1858,-0.1929,-0.1991,-0.2032,-0.2095,-0.2141,-0.2194,-0.2204,-0.2214,-0.2219,-0.2227,-0.2251,-0.2206,-0.2204,-0.2183,-0.2253,-0.2101,-0.2088,-0.2254,-0.2255,-0.2256,-0.2228,0,-0.1634,-0.1698,-0.1744,-0.1815,-0.1851,-0.1915,-0.1971,-0.2036,-0.209,-0.2144,-0.2181,-0.2227,-0.223,-0.225,-0.2264,-0.2254,-0.2258,-0.2258,-0.2215,-0.2213,-0.2065,-0.2086,-0.2258,-0.2229,-0.2229,-0.2229,-0.2229,0,-0.1634,-0.168,-0.1749,-0.1838,-0.1861,-0.1914,-0.2006,-0.2063,-0.2144,-0.2184,-0.224,-0.2265,-0.2302,-0.2291,-0.2303,-0.2304,-0.2284,-0.227,-0.2269,-0.21,-0.2063,-0.2169,-0.2232,-0.2232,-0.2231,-0.2231,-0.2231,0,-0.1581,-0.1679,-0.1734,-0.1767,-0.1873,-0.1924,-0.1986,-0.2078,-0.2123,-0.2209,-0.2241,-0.2295,-0.2316,-0.2318,-0.2299,-0.2307,-0.2286,-0.2291,-0.2136,-0.2125,-0.2242,-0.2237,-0.229,-0.229,-0.229,-0.229,-0.229,0,-0.1555,-0.1602,-0.1719,-0.1747,-0.1813,-0.1903,-0.1976,-0.2044,-0.2132,-0.2164,-0.2254,-0.2268,-0.2325,-0.2322,-0.2304,-0.2209,-0.2292,-0.213,-0.2104,-0.2271,-0.2269,-0.2243,-0.2238,-0.2289,-0.2289,-0.2289,-0.2289,0,-0.1479,-0.1561,-0.1626,-0.1748,-0.179,-0.1837,-0.196,-0.1997,-0.2102,-0.2144,-0.217,-0.2253,-0.2242,-0.2268,-0.2254,-0.2189,-0.213,-0.2077,-0.2239,-0.2226,-0.1966,-0.1965,-0.1901,-0.1896,-0.1891,-0.1887,-0.1883,0,-0.1442,-0.147,-0.1603,-0.1637,-0.1697,-0.1784,-0.1831,-0.196,-0.1989,-0.2103,-0.2093,-0.2142,-0.217,-0.2023,-0.2077,-0.2023,-0.2003,-0.1963,-0.1976,-0.1943,-0.1926,-0.1932,-0.1938,-0.1876,-0.1874,-0.1873,-0.1872,0,-0.136,-0.1421,-0.1472,-0.1542,-0.1605,-0.166,-0.1738,-0.1746,-0.1867,-0.1985,-0.1948,-0.1939,-0.192,-0.1907,-0.1873,-0.1841,-0.1985,-0.1913,-0.1923,-0.1935,-0.1911,-0.1901,-0.1912,-0.1855,-0.1858,-0.1859,-0.186,0,-0.1294,-0.1306,-0.1377,-0.142,-0.1491,-0.1499,-0.1567,-0.1588,-0.1636,-0.1765,-0.1742,-0.1798,-0.1881,-0.181,-0.1779,-0.1733,-0.1717,-0.1664,-0.1687,-0.1707,-0.1657,-0.1599,-0.1412,0,0,0,0,0,-0.1218,-0.1212,-0.1244,-0.1283,-0.1344,-0.1379,-0.1477,-0.1545,-0.1665,-0.1583,-0.1658,-0.1629,-0.1595,-0.1633,-0.1544,-0.1703,-0.1729,-0.1594,-0.1683,-0.1763,-0.1782,-0.1743,0,0,0,0,0,0,-0.1166,-0.1193,-0.1196,-0.1148,-0.1143,-0.1191,-0.1244,-0.1333,-0.1299,-0.1428,-0.1412,-0.1517,-0.1505,-0.1605,-0.1502,-0.1514,-0.1533,-0.1644,-0.1639,-0.1752,-0.1769,-0.1785,-0.1752,0,0,0,0,0]},{"header":{"parameterUnit":"m.s-1","parameterCategory":2,"la1":30.2991,"la2":30.254,"lo1":-89.0895,"lo2":-89.0444,"dy":0.0017,"dx":0.0017,"nx":28,"ny":28,"refTime":"2025-12-21T03:00:00:Z","depth":"4","parameterNumber":3,"parameterNumberName":"V-component_of_CURRENTS"},"data":[0,0,0,0,0,0,0,0,0,0,0,0,0,0,0,0,0,0,0,0,0,0,0,0,0,0,0,0,0,0,0,0,0,0,0,0,0,0,0,0,0,0,0,0,0,0,0,0,0,0,0,0,0,0,0,0,0,0,-0.0155,-0.0155,0,-0.01,-0.0099,-0.0098,-0.0056,-0.0056,-0.0055,-0.0055,0.0038,0.0041,0.0043,0,0,0,0,0,0,0,0,0,0,0,0,0,-0.0173,-0.0174,-0.0155,-0.0155,-0.0154,-0.01,-0.0099,-0.0098,-0.0056,-0.0055,-0.0055,-0.0055,0.0038,0.004,0.0043,0,0,0,0,0,0,0,0,0,0,0,0,0,-0.0145,-0.0174,-0.0155,-0.0128,-0.0125,-0.01,-0.0099,-0.0098,-0.0056,-0.0055,-0.0055,-0.0055,0.0037,0.004,0.0043,0.0057,0,0,0.0054,0.0055,0,0,0,0,0,0,0,0,-0.0147,-0.0144,-0.0132,-0.013,-0.0126,-0.0086,-0.0071,-0.0045,-0.0056,-0.008,-0.0055,-0.0055,-0.0001,0.0005,0.0017,0.0062,0.0066,0.0054,0.0056,0.0058,0.0059,0,0,0,0,0,0,0,-0.0149,-0.0146,-0.0131,-0.0132,-0.0128,-0.0101,-0.0097,-0.0066,-0.0041,-0.0078,-0.0075,-0.0072,0.0001,0.0014,0.002,0.0067,0.0054,0.0057,0.0059,0.006,0.0141,0.0141,0,0,0,0,0,0,-0.0162,-0.0148,-0.0133,-0.013,-0.0138,-0.0101,-0.0096,-0.0098,-0.0042,-0.0034,-0.0072,-0.007,0.0008,0.0016,0.0023,0.0042,0.0058,0.0061,0.0063,0.0141,0.0141,0.0141,0,0,0,0,0,0,-0.0163,-0.0162,-0.0135,-0.0139,-0.0134,-0.0102,-0.0103,-0.0097,-0.0086,-0.0039,-0.003,-0.0068,0.0008,0.0018,0.0048,0.0046,0.0062,0.0065,0.0141,0.0141,0.0141,0.0081,0,0,0,0,0,0,-0.0164,-0.0162,-0.0169,-0.014,-0.0134,-0.0128,-0.0104,-0.0096,-0.0085,-0.0082,-0.0032,-0.0023,0.0009,0.0043,0.0052,0.0051,0.0068,0.0141,0.0141,0.0141,0.0083,0.0079,0.0076,0,0,0,0,0,-0.0165,-0.0178,-0.017,-0.0168,-0.0145,-0.0129,-0.0123,-0.0097,-0.0085,-0.0085,-0.0049,-0.0025,0.0051,0.0046,0.0056,0.0056,0.0141,0.0141,0.0141,0.0084,0.008,0.0076,0,0,0,0,0,0,-0.0188,-0.0174,-0.0165,-0.0173,-0.0156,-0.0122,-0.0121,-0.0103,-0.0075,-0.0071,-0.0024,-0.0013,0.0012,0.0044,0.0037,0.0081,0.0101,0.0103,0.0054,0.005,0.0046,0.0032,0.0071,0,0,0,0,0,-0.0199,-0.0205,-0.0183,-0.0189,-0.0184,-0.0153,-0.0144,-0.0127,-0.0099,-0.0086,-0.0052,-0.0013,0.0022,0.0042,0.0074,0.0098,0.0133,0.0106,0.0103,0.01,0.0096,0.0146,0.0147,0.0142,0.0142,0.0142,0,0,-0.0209,-0.0203,-0.0206,-0.0194,-0.0179,-0.0178,-0.0147,-0.0139,-0.0134,-0.008,-0.0064,-0.0026,0.0024,0.005,0.0065,0.0076,0.0119,0.01,0.0096,0.0095,0.0146,0.0147,0.0147,0.0142,0.0142,0.0142,0,0,-0.0236,-0.0229,-0.0244,-0.0234,-0.0219,-0.02,-0.0201,-0.0172,-0.0155,-0.0135,-0.0094,-0.0059,-0.001,0.0028,0.0053,0.0052,0.0096,0.0062,0.0036,0.0085,0.0085,0.0086,0.0127,0.0132,0.0064,0.0063,0.0063,0,-0.0251,-0.0266,-0.0244,-0.0254,-0.0253,-0.0215,-0.0228,-0.0204,-0.0168,-0.0154,-0.0139,-0.006,-0.002,0.0021,0.0021,0.0043,0.0075,0.0045,0.0079,0.0081,0.0083,0.0125,0.0131,0.006,0.0061,0.0061,0.0061,0,-0.0284,-0.0299,-0.0306,-0.0308,-0.0301,-0.0306,-0.0275,-0.0262,-0.0237,-0.0208,-0.0167,-0.0107,-0.006,-0.0039,-0.001,0.0025,0.0044,0.0065,0.0085,0.0079,0.0124,0.0132,0.0056,0.0057,0.0058,0.0059,0,0,-0.0315,-0.033,-0.0333,-0.0349,-0.0332,-0.0333,-0.0323,-0.0302,-0.0295,-0.0247,-0.0227,-0.0162,-0.0125,-0.0093,-0.0045,-0.0,0.0041,0.0032,0.0036,0.0064,0.0143,0.0121,0.0128,0.0066,0.0067,0.0068,0.0167,0,-0.035,-0.039,-0.0382,-0.0415,-0.0432,-0.04,-0.0396,-0.0368,-0.0332,-0.0301,-0.0226,-0.0189,-0.0146,-0.0122,-0.0071,0.0013,0.0059,0.0012,0.0152,0.0156,0.0131,0.0136,0.0072,0.0173,0.0175,0.0176,0.0177,0,-0.0386,-0.041,-0.0454,-0.0476,-0.048,-0.049,-0.0477,-0.0469,-0.0409,-0.0377,-0.0318,-0.0257,-0.0181,-0.0145,-0.0005,-0.0039,0.0042,0.011,0.0116,0.0122,0.0149,0.0184,0.0192,0.0191,0.019,0.0189,0.0188,0,-0.0422,-0.046,-0.0502,-0.0509,-0.0522,-0.0534,-0.0535,-0.0494,-0.0488,-0.0422,-0.04,-0.03,-0.0248,-0.0134,0.0003,0.0001,0.0158,0.0177,0.0236,0.0236,0.0252,0.0251,0.0274,0.0273,0.0273,0.0273,0.0273,0,-0.0459,-0.0494,-0.0527,-0.055,-0.0598,-0.0585,-0.0612,-0.059,-0.0555,-0.0544,-0.0447,-0.0404,-0.0243,-0.0132,-0.0009,0.0132,0.0152,0.023,0.0259,0.0225,0.0219,0.0258,0.0255,0.0277,0.0276,0.0275,0.0274,0,-0.0489,-0.0511,-0.0568,-0.0604,-0.062,-0.0654,-0.0678,-0.0686,-0.0645,-0.0624,-0.0604,-0.0478,-0.0331,-0.0167,0.0027,0.0109,0.0253,0.03,0.0245,0.027,0.0302,0.0295,0.0373,0.0373,0.0373,0.0373,0.0373,0,-0.0507,-0.0539,-0.0615,-0.0656,-0.0679,-0.0725,-0.0751,-0.0734,-0.0734,-0.0664,-0.0649,-0.0512,-0.041,-0.0148,0.0014,0.0243,0.0273,0.0337,0.0323,0.0292,0.0313,0.0306,0.0299,0.0373,0.0373,0.0373,0.0373,0,-0.0539,-0.0571,-0.0617,-0.0706,-0.0757,-0.0806,-0.0837,-0.0843,-0.0809,-0.0778,-0.0667,-0.0522,-0.0358,-0.0153,0.0021,0.0184,0.0288,0.0338,0.0339,0.0326,0.0293,0.0312,0.0305,0.0373,0.0373,0.0373,0.0373,0,-0.0559,-0.0603,-0.0671,-0.0742,-0.0813,-0.0858,-0.0875,-0.0856,-0.0844,-0.0756,-0.0722,-0.0529,-0.0416,-0.0183,-0.0021,0.0132,0.017,0.0209,0.0218,0.022,0.014,0.0073,0.011,0,0,0,0,0,-0.0573,-0.0623,-0.0699,-0.0777,-0.0847,-0.088,-0.0914,-0.0914,-0.0884,-0.0811,-0.0761,-0.0599,-0.0344,-0.023,-0.0078,-0.0034,0.018,0.0144,0.0225,0.0374,0.0374,0.0303,0,0,0,0,0,0,-0.0584,-0.0658,-0.0698,-0.0784,-0.0837,-0.0901,-0.0922,-0.0904,-0.0852,-0.0801,-0.0658,-0.0577,-0.0325,-0.0423,-0.0075,-0.003,0.0036,0.0269,0.0272,0.0374,0.0374,0.0374,0.0301,0,0,0,0,0]}]]